Hourly Data Report for October 09, 2015

All times are specified in Local Standard Time (LST). Add 1 hour to adjust for Daylight Saving Time where and when it is observed.

CORAL HARBOUR A
NUNAVUT

64°11'36.000" N
83°21'34.000" W
62.20 m
2301002
71915
YZS

Download Data

Hourly Data (October 2015)
Hourly Data Report for October 9, 2015
Temp Definition
°C
Dew Point Temp Definition
°C
Rel Hum Definition
%
Wind Dir Definition
10's deg

Wind Spd Definition
km/h
Visibility Definition
km
Stn Press Definition
kPa
Hmdx Definition


Wind Chill Definition


Weather Definition


TIME
00:00 Legend Double Dagger -6.3 -7.8 89 6 8 9.7 99.76   -10 Snow
01:00 Legend Double Dagger -6.5 -8.2 88 6 9 9.7 99.74   -11 Snow
02:00 Legend Double Dagger -6.6 -8.1 89 3 8 9.7 99.72   -10 Snow
03:00 Legend Double Dagger -6.6 -8.3 88 1 10 12.9 99.68   -11 Snow
04:00 Legend Double Dagger -6.8 -8.5 88 36 11 12.9 99.67   -12 Snow
05:00 Legend Double Dagger -6.9 -8.9 86 1 12 19.3 99.66   -12 Snow
06:00 Legend Double Dagger -6.9 -9.2 84 1 13 19.3 99.68   -12 Snow
07:00 Legend Double Dagger -7.4 -9.4 86 34 13 19.3 99.67   -13 Snow
08:00 Legend Double Dagger -7.7 -10.3 82 35 17 24.1 99.64   -14 Snow
09:00 Legend Double Dagger -7.4 -10.1 81 36 16 24.1 99.63   -14 Snow
10:00 Legend Double Dagger -6.9 -9.8 80 34 14 24.1 99.61   -13 Cloudy
11:00 Legend Double Dagger -6.2 -9.4 78 34 17 24.1 99.60   -12 LegendNANA
12:00 Legend Double Dagger -6.1 -9.3 78 34 18 19.3 99.58   -13 Snow
13:00 Legend Double Dagger -5.3 -9.6 72 36 17 24.1 99.58   -11 Cloudy
14:00 Legend Double Dagger -5.3 -8.9 76 1 18 19.3 99.62   -12 Snow
15:00 Legend Double Dagger -5.8 -9.2 77 1 22 24.1 99.61   -13 Snow
16:00 Legend Double Dagger -5.9 -9.1 78 1 21 19.3 99.62   -13 Snow
17:00 Legend Double Dagger -6.1 -8.9 81 1 19 19.3 99.64   -13 Snow
18:00 Legend Double Dagger -6.5 -8.9 83 35 19 19.3 99.64   -13 Snow
19:00 Legend Double Dagger -6.5 -9.4 80 36 21 19.3 99.66   -14 Snow
20:00 Legend Double Dagger -6.5 -8.5 86 35 19 19.3 99.67   -13 Snow
21:00 Legend Double Dagger -6.3 -8.4 85 35 23 12.9 99.65   -14 Snow
22:00 Legend Double Dagger -6.3 -8.9 82 34 20 4.8 99.64   -13 Snow
23:00 Legend Double Dagger -7.0 -9.7 81 33 21 24.1 99.66   -14 Snow

Notes on Data Quality.

Legend

  • E = Estimated
  • M = Missing
  • NA = Not Available
  • ‡ = Partner data that is not subject to review by the National Climate Archives
Date modified: